This is the latest recevied weather packets stored in our database for station/object DM4WH-13. If no packets are shown the sender has not sent any weather packets the latest 10 day(s).
| Time | Temp. | Humidity | Pressure | Rain* | Wind** | Luminosity | Snow |
|---|---|---|---|---|---|---|---|
| 1777634112 | 18.89° C | 40% | 1030.6 hPa | 0 mm | 0.89 m/s, 329° | - | - |
| 1777633825 | 18.89° C | 43% | 1030.6 hPa | 0 mm | 0.45 m/s, 335° | - | - |
| 1777633512 | 18.89° C | 41% | 1030.7 hPa | 0 mm | 0.89 m/s, 276° | - | - |
| 1777633224 | 18.89° C | 40% | 1030.7 hPa | 0 mm | 0.45 m/s, 336° | - | - |
| 1777632912 | 17.78° C | 45% | 1030.8 hPa | 0 mm | 0.45 m/s, 180° | - | - |
| 1777632624 | 17.78° C | 41% | 1030.8 hPa | 0 mm | 0.89 m/s, 294° | - | - |
| 1777632312 | 17.78° C | 42% | 1030.9 hPa | 0 mm | 0.45 m/s, 294° | - | - |
| 1777632025 | 17.78° C | 44% | 1030.8 hPa | 0 mm | 0.45 m/s, 287° | - | - |
| 1777631712 | 17.78° C | 44% | 1030.9 hPa | 0 mm | 0.89 m/s, 324° | - | - |
| 1777631437 | 17.78° C | 42% | 1030.9 hPa | 0 mm | 0.45 m/s, 281° | - | - |
| 1777631124 | 17.78° C | 43% | 1031 hPa | 0 mm | 0.89 m/s, 281° | - | - |
| 1777630811 | 17.78° C | 43% | 1031.1 hPa | 0 mm | 0.89 m/s, 301° | - | - |
| 1777630524 | 17.78° C | 43% | 1031.1 hPa | 0 mm | 0.89 m/s, 38° | - | - |
| 1777630211 | 17.78° C | 40% | 1031.1 hPa | 0 mm | 0 m/s | - | - |
| 1777629924 | 17.78° C | 42% | 1031.1 hPa | 0 mm | 0.45 m/s, 273° | - | - |
| 1777629611 | 17.22° C | 42% | 1031.2 hPa | 0 mm | 0.45 m/s, 299° | - | - |
| 1777629324 | 17.78° C | 41% | 1031.2 hPa | 0 mm | 0.45 m/s, 37° | - | - |
| 1777629011 | 17.78° C | 40% | 1031.2 hPa | 0 mm | 0.45 m/s, 40° | - | - |
| 1777628724 | 17.22° C | 42% | 1031.2 hPa | 0 mm | 0.45 m/s, 300° | - | - |
| 1777628411 | 17.78° C | 44% | 1031.3 hPa | 0 mm | 0.45 m/s, 300° | - | - |
| 1777628124 | 17.22° C | 42% | 1031.3 hPa | 0 mm | 0.45 m/s, 33° | - | - |
| 1777627812 | 17.22° C | 45% | 1031.4 hPa | 0 mm | 0.89 m/s, 300° | - | - |
| 1777627524 | 17.22° C | 42% | 1031.4 hPa | 0 mm | 0.45 m/s, 303° | - | - |
| 1777627212 | 17.22° C | 42% | 1031.5 hPa | 0 mm | 0.89 m/s, 52° | - | - |
| 1777626924 | 17.22° C | 44% | 1031.5 hPa | 0 mm | 0.45 m/s, 325° | - | - |
* Rain latest hour (hover to see other rain measurements)
** Current wind speed in m/s (hover to see current wind gust speed)